#datetime,building,power
2022-02-02T00:00:00,sdl,20.18
2022-02-02T00:01:00,sdl,20.07
2022-02-02T00:02:00,sdl,20.21
2022-02-02T00:03:00,sdl,19.96
2022-02-02T00:04:00,sdl,19.81
2022-02-02T00:05:00,sdl,19.80
2022-02-02T00:06:00,sdl,19.86
2022-02-02T00:07:00,sdl,19.81
2022-02-02T00:08:00,sdl,19.67
2022-02-02T00:09:00,sdl,19.65
2022-02-02T00:10:00,sdl,19.69
2022-02-02T00:11:00,sdl,19.68
2022-02-02T00:12:00,sdl,19.78
2022-02-02T00:13:00,sdl,22.05
2022-02-02T00:14:00,sdl,22.68
2022-02-02T00:15:00,sdl,23.07
2022-02-02T00:16:00,sdl,22.05
2022-02-02T00:17:00,sdl,22.23
2022-02-02T00:18:00,sdl,21.99
2022-02-02T00:19:00,sdl,22.49
2022-02-02T00:20:00,sdl,21.88
2022-02-02T00:21:00,sdl,21.99
2022-02-02T00:22:00,sdl,21.99
2022-02-02T00:23:00,sdl,21.98
2022-02-02T00:24:00,sdl,21.98
2022-02-02T00:25:00,sdl,22.18
2022-02-02T00:26:00,sdl,22.06
2022-02-02T00:27:00,sdl,22.04
2022-02-02T00:28:00,sdl,20.14
2022-02-02T00:29:00,sdl,20.12
2022-02-02T00:30:00,sdl,19.80
2022-02-02T00:31:00,sdl,19.83
2022-02-02T00:32:00,sdl,19.84
2022-02-02T00:33:00,sdl,19.84
2022-02-02T00:34:00,sdl,19.71
2022-02-02T00:35:00,sdl,20.13
2022-02-02T00:36:00,sdl,20.19
2022-02-02T00:37:00,sdl,20.25
2022-02-02T00:38:00,sdl,20.09
2022-02-02T00:39:00,sdl,20.79
2022-02-02T00:40:00,sdl,20.14
2022-02-02T00:41:00,sdl,23.57
2022-02-02T00:42:00,sdl,22.46
2022-02-02T00:43:00,sdl,22.45
2022-02-02T00:44:00,sdl,22.43
2022-02-02T00:45:00,sdl,22.82
2022-02-02T00:46:00,sdl,22.41
2022-02-02T00:47:00,sdl,22.44
2022-02-02T00:48:00,sdl,22.37
2022-02-02T00:49:00,sdl,22.28
2022-02-02T00:50:00,sdl,22.33
2022-02-02T00:51:00,sdl,22.37
2022-02-02T00:52:00,sdl,22.45
2022-02-02T00:53:00,sdl,22.45
2022-02-02T00:54:00,sdl,20.19
2022-02-02T00:55:00,sdl,20.13
2022-02-02T00:56:00,sdl,25.93
2022-02-02T00:57:00,sdl,23.78
2022-02-02T00:58:00,sdl,24.26
2022-02-02T00:59:00,sdl,23.85
2022-02-02T01:00:00,sdl,23.88
2022-02-02T01:01:00,sdl,23.87
2022-02-02T01:02:00,sdl,23.91
2022-02-02T01:03:00,sdl,24.46
2022-02-02T01:04:00,sdl,20.70
2022-02-02T01:05:00,sdl,21.06
2022-02-02T01:06:00,sdl,16.80
2022-02-02T01:07:00,sdl,17.20
2022-02-02T01:08:00,sdl,17.60
2022-02-02T01:09:00,sdl,18.04
2022-02-02T01:10:00,sdl,18.38
2022-02-02T01:11:00,sdl,18.72
2022-02-02T01:12:00,sdl,19.07
2022-02-02T01:13:00,sdl,19.87
2022-02-02T01:14:00,sdl,19.81
2022-02-02T01:15:00,sdl,20.15
2022-02-02T01:16:00,sdl,19.92
2022-02-02T01:17:00,sdl,19.78
2022-02-02T01:18:00,sdl,19.81
2022-02-02T01:19:00,sdl,19.91
2022-02-02T01:20:00,sdl,19.77
2022-02-02T01:21:00,sdl,22.21
2022-02-02T01:22:00,sdl,22.13
2022-02-02T01:23:00,sdl,22.09
2022-02-02T01:24:00,sdl,22.64
2022-02-02T01:25:00,sdl,23.05
2022-02-02T01:26:00,sdl,22.48
2022-02-02T01:27:00,sdl,21.78
2022-02-02T01:28:00,sdl,22.18
2022-02-02T01:29:00,sdl,22.15
2022-02-02T01:30:00,sdl,22.17
2022-02-02T01:31:00,sdl,22.10
2022-02-02T01:32:00,sdl,22.82
2022-02-02T01:33:00,sdl,22.08
2022-02-02T01:34:00,sdl,22.08
2022-02-02T01:35:00,sdl,22.07
2022-02-02T01:36:00,sdl,19.81
2022-02-02T01:37:00,sdl,19.77
2022-02-02T01:38:00,sdl,20.24
2022-02-02T01:39:00,sdl,21.03
2022-02-02T01:40:00,sdl,20.39
2022-02-02T01:41:00,sdl,20.31
2022-02-02T01:42:00,sdl,20.26
2022-02-02T01:43:00,sdl,20.28
2022-02-02T01:44:00,sdl,20.96
2022-02-02T01:45:00,sdl,20.20
2022-02-02T01:46:00,sdl,20.08
2022-02-02T01:47:00,sdl,20.11
2022-02-02T01:48:00,sdl,20.16
2022-02-02T01:49:00,sdl,22.39
2022-02-02T01:50:00,sdl,22.34
2022-02-02T01:51:00,sdl,22.48
2022-02-02T01:52:00,sdl,22.82
2022-02-02T01:53:00,sdl,23.01
2022-02-02T01:54:00,sdl,22.61
2022-02-02T01:55:00,sdl,22.63
2022-02-02T01:56:00,sdl,22.54
2022-02-02T01:57:00,sdl,22.48
2022-02-02T01:58:00,sdl,23.13
2022-02-02T01:59:00,sdl,22.57
2022-02-02T02:00:00,sdl,22.07
2022-02-02T02:01:00,sdl,22.06
2022-02-02T02:02:00,sdl,21.99
2022-02-02T02:03:00,sdl,22.22
2022-02-02T02:04:00,sdl,20.84
2022-02-02T02:05:00,sdl,20.59
2022-02-02T02:06:00,sdl,20.69
2022-02-02T02:07:00,sdl,20.73
2022-02-02T02:08:00,sdl,20.73
2022-02-02T02:09:00,sdl,20.72
2022-02-02T02:10:00,sdl,20.70
2022-02-02T02:11:00,sdl,19.82
2022-02-02T02:12:00,sdl,19.79
2022-02-02T02:13:00,sdl,19.70
2022-02-02T02:14:00,sdl,19.87
2022-02-02T02:15:00,sdl,19.89
2022-02-02T02:16:00,sdl,24.18
2022-02-02T02:17:00,sdl,24.12
2022-02-02T02:18:00,sdl,24.10
2022-02-02T02:19:00,sdl,24.09
2022-02-02T02:20:00,sdl,24.08
2022-02-02T02:21:00,sdl,24.41
2022-02-02T02:22:00,sdl,24.39
2022-02-02T02:23:00,sdl,23.92
2022-02-02T02:24:00,sdl,19.44
2022-02-02T02:25:00,sdl,18.82
2022-02-02T02:26:00,sdl,18.12
2022-02-02T02:27:00,sdl,18.10
2022-02-02T02:28:00,sdl,18.22
2022-02-02T02:29:00,sdl,20.57
2022-02-02T02:30:00,sdl,20.56
2022-02-02T02:31:00,sdl,20.47
2022-02-02T02:32:00,sdl,20.96
2022-02-02T02:33:00,sdl,20.46
2022-02-02T02:34:00,sdl,20.52
2022-02-02T02:35:00,sdl,20.64
2022-02-02T02:36:00,sdl,20.69
2022-02-02T02:37:00,sdl,20.60
2022-02-02T02:38:00,sdl,20.52
2022-02-02T02:39:00,sdl,20.46
2022-02-02T02:40:00,sdl,21.12
2022-02-02T02:41:00,sdl,21.16
2022-02-02T02:42:00,sdl,21.14
2022-02-02T02:43:00,sdl,21.21
2022-02-02T02:44:00,sdl,21.14
2022-02-02T02:45:00,sdl,18.71
2022-02-02T02:46:00,sdl,18.71
2022-02-02T02:47:00,sdl,18.75
2022-02-02T02:48:00,sdl,19.18
2022-02-02T02:49:00,sdl,19.16
2022-02-02T02:50:00,sdl,18.71
2022-02-02T02:51:00,sdl,19.15
2022-02-02T02:52:00,sdl,18.81
2022-02-02T02:53:00,sdl,18.76
2022-02-02T02:54:00,sdl,18.80
2022-02-02T02:55:00,sdl,18.77
2022-02-02T02:56:00,sdl,18.75
2022-02-02T02:57:00,sdl,18.74
2022-02-02T02:58:00,sdl,19.40
2022-02-02T02:59:00,sdl,21.66
2022-02-02T03:00:00,sdl,21.00
2022-02-02T03:01:00,sdl,21.07
2022-02-02T03:02:00,sdl,21.08
2022-02-02T03:03:00,sdl,20.69
2022-02-02T03:04:00,sdl,20.75
2022-02-02T03:05:00,sdl,20.65
2022-02-02T03:06:00,sdl,20.58
2022-02-02T03:07:00,sdl,20.61
2022-02-02T03:08:00,sdl,20.58
2022-02-02T03:09:00,sdl,20.48
2022-02-02T03:10:00,sdl,20.44
2022-02-02T03:11:00,sdl,18.65
2022-02-02T03:12:00,sdl,18.16
2022-02-02T03:13:00,sdl,18.14
2022-02-02T03:14:00,sdl,18.16
2022-02-02T03:15:00,sdl,18.73
2022-02-02T03:16:00,sdl,18.83
2022-02-02T03:17:00,sdl,18.43
2022-02-02T03:18:00,sdl,18.30
2022-02-02T03:19:00,sdl,18.30
2022-02-02T03:20:00,sdl,18.26
2022-02-02T03:21:00,sdl,18.17
2022-02-02T03:22:00,sdl,18.12
2022-02-02T03:23:00,sdl,18.12
2022-02-02T03:24:00,sdl,18.08
2022-02-02T03:25:00,sdl,18.13
2022-02-02T03:26:00,sdl,18.10
2022-02-02T03:27:00,sdl,18.12
2022-02-02T03:28:00,sdl,22.41
2022-02-02T03:29:00,sdl,22.44
2022-02-02T03:30:00,sdl,22.54
2022-02-02T03:31:00,sdl,22.46
2022-02-02T03:32:00,sdl,23.14
2022-02-02T03:33:00,sdl,23.04
2022-02-02T03:34:00,sdl,22.38
2022-02-02T03:35:00,sdl,22.30
2022-02-02T03:36:00,sdl,24.48
2022-02-02T03:37:00,sdl,24.66
2022-02-02T03:38:00,sdl,24.55
2022-02-02T03:39:00,sdl,24.61
2022-02-02T03:40:00,sdl,20.41
2022-02-02T03:41:00,sdl,20.42
2022-02-02T03:42:00,sdl,20.38
2022-02-02T03:43:00,sdl,20.92
2022-02-02T03:44:00,sdl,21.45
2022-02-02T03:45:00,sdl,21.30
2022-02-02T03:46:00,sdl,21.94
2022-02-02T03:47:00,sdl,21.21
2022-02-02T03:48:00,sdl,21.14
2022-02-02T03:49:00,sdl,21.21
2022-02-02T03:50:00,sdl,21.12
2022-02-02T03:51:00,sdl,18.91
2022-02-02T03:52:00,sdl,18.86
2022-02-02T03:53:00,sdl,18.98
2022-02-02T03:54:00,sdl,18.60
2022-02-02T03:55:00,sdl,18.53
2022-02-02T03:56:00,sdl,18.48
2022-02-02T03:57:00,sdl,18.71
2022-02-02T03:58:00,sdl,18.66
2022-02-02T03:59:00,sdl,19.21
2022-02-02T04:00:00,sdl,18.85
2022-02-02T04:01:00,sdl,18.74
2022-02-02T04:02:00,sdl,18.73
2022-02-02T04:03:00,sdl,22.86
2022-02-02T04:04:00,sdl,26.44
2022-02-02T04:05:00,sdl,25.23
2022-02-02T04:06:00,sdl,25.21
2022-02-02T04:07:00,sdl,25.15
2022-02-02T04:08:00,sdl,24.82
2022-02-02T04:09:00,sdl,24.92
2022-02-02T04:10:00,sdl,24.80
2022-02-02T04:11:00,sdl,24.97
2022-02-02T04:12:00,sdl,24.90
2022-02-02T04:13:00,sdl,24.95
2022-02-02T04:14:00,sdl,24.98
2022-02-02T04:15:00,sdl,24.98
2022-02-02T04:16:00,sdl,24.82
2022-02-02T04:17:00,sdl,23.10
2022-02-02T04:18:00,sdl,23.12
2022-02-02T04:19:00,sdl,22.63
2022-02-02T04:20:00,sdl,22.60
2022-02-02T04:21:00,sdl,22.55
2022-02-02T04:22:00,sdl,23.12
2022-02-02T04:23:00,sdl,22.48
2022-02-02T04:24:00,sdl,22.52
2022-02-02T04:25:00,sdl,22.53
2022-02-02T04:26:00,sdl,22.39
2022-02-02T04:27:00,sdl,23.63
2022-02-02T04:28:00,sdl,22.44
2022-02-02T04:29:00,sdl,23.16
2022-02-02T04:30:00,sdl,22.69
2022-02-02T04:31:00,sdl,22.46
2022-02-02T04:32:00,sdl,22.47
2022-02-02T04:33:00,sdl,22.46
2022-02-02T04:34:00,sdl,22.56
2022-02-02T04:35:00,sdl,22.61
2022-02-02T04:36:00,sdl,22.55
2022-02-02T04:37:00,sdl,22.73
2022-02-02T04:38:00,sdl,22.70
2022-02-02T04:39:00,sdl,22.69
2022-02-02T04:40:00,sdl,22.74
2022-02-02T04:41:00,sdl,22.83
2022-02-02T04:42:00,sdl,25.05
2022-02-02T04:43:00,sdl,26.17
2022-02-02T04:44:00,sdl,25.72
2022-02-02T04:45:00,sdl,25.30
2022-02-02T04:46:00,sdl,25.62
2022-02-02T04:47:00,sdl,24.92
2022-02-02T04:48:00,sdl,24.86
2022-02-02T04:49:00,sdl,24.94
2022-02-02T04:50:00,sdl,24.79
2022-02-02T04:51:00,sdl,25.34
2022-02-02T04:52:00,sdl,25.79
2022-02-02T04:53:00,sdl,25.35
2022-02-02T04:54:00,sdl,25.37
2022-02-02T04:55:00,sdl,25.41
2022-02-02T04:56:00,sdl,25.29
2022-02-02T04:57:00,sdl,22.99
2022-02-02T04:58:00,sdl,22.85
2022-02-02T04:59:00,sdl,22.81
2022-02-02T05:00:00,sdl,22.86
2022-02-02T05:01:00,sdl,22.78
2022-02-02T05:02:00,sdl,22.69
2022-02-02T05:03:00,sdl,22.75
2022-02-02T05:04:00,sdl,22.74
2022-02-02T05:05:00,sdl,22.80
2022-02-02T05:06:00,sdl,22.87
2022-02-02T05:07:00,sdl,22.86
2022-02-02T05:08:00,sdl,22.88
2022-02-02T05:09:00,sdl,22.86
2022-02-02T05:10:00,sdl,24.97
2022-02-02T05:11:00,sdl,25.38
2022-02-02T05:12:00,sdl,25.39
2022-02-02T05:13:00,sdl,25.00
2022-02-02T05:14:00,sdl,24.91
2022-02-02T05:15:00,sdl,24.57
2022-02-02T05:16:00,sdl,24.59
2022-02-02T05:17:00,sdl,24.66
2022-02-02T05:18:00,sdl,24.91
2022-02-02T05:19:00,sdl,24.83
2022-02-02T05:20:00,sdl,24.89
2022-02-02T05:21:00,sdl,25.00
2022-02-02T05:22:00,sdl,24.95
2022-02-02T05:23:00,sdl,22.58
2022-02-02T05:24:00,sdl,22.59
2022-02-02T05:25:00,sdl,22.60
2022-02-02T05:26:00,sdl,22.44
2022-02-02T05:27:00,sdl,22.69
2022-02-02T05:28:00,sdl,22.96
2022-02-02T05:29:00,sdl,22.46
2022-02-02T05:30:00,sdl,22.52
2022-02-02T05:31:00,sdl,22.44
2022-02-02T05:32:00,sdl,22.49
2022-02-02T05:33:00,sdl,22.47
2022-02-02T05:34:00,sdl,22.45
2022-02-02T05:35:00,sdl,22.44
2022-02-02T05:36:00,sdl,22.45
2022-02-02T05:37:00,sdl,22.89
2022-02-02T05:38:00,sdl,22.81
2022-02-02T05:39:00,sdl,22.41
2022-02-02T05:40:00,sdl,22.40
2022-02-02T05:41:00,sdl,22.46
2022-02-02T05:42:00,sdl,22.52
2022-02-02T05:43:00,sdl,22.67
2022-02-02T05:44:00,sdl,22.48
2022-02-02T05:45:00,sdl,22.47
2022-02-02T05:46:00,sdl,22.41
2022-02-02T05:47:00,sdl,23.05
2022-02-02T05:48:00,sdl,22.53
2022-02-02T05:49:00,sdl,24.79
2022-02-02T05:50:00,sdl,24.69
2022-02-02T05:51:00,sdl,24.66
2022-02-02T05:52:00,sdl,24.93
2022-02-02T05:53:00,sdl,25.46
2022-02-02T05:54:00,sdl,24.72
2022-02-02T05:55:00,sdl,24.75
2022-02-02T05:56:00,sdl,24.60
2022-02-02T05:57:00,sdl,24.67
2022-02-02T05:58:00,sdl,24.59
2022-02-02T05:59:00,sdl,24.73
2022-02-02T06:00:00,sdl,21.88
2022-02-02T06:01:00,sdl,22.42
2022-02-02T06:02:00,sdl,22.60
2022-02-02T06:03:00,sdl,22.47
2022-02-02T06:04:00,sdl,21.84
2022-02-02T06:05:00,sdl,21.47
2022-02-02T06:06:00,sdl,21.59
2022-02-02T06:07:00,sdl,22.07
2022-02-02T06:08:00,sdl,22.19
2022-02-02T06:09:00,sdl,22.70
2022-02-02T06:10:00,sdl,22.73
2022-02-02T06:11:00,sdl,22.67
2022-02-02T06:12:00,sdl,22.62
2022-02-02T06:13:00,sdl,22.82
2022-02-02T06:14:00,sdl,22.71
2022-02-02T06:15:00,sdl,22.71
2022-02-02T06:16:00,sdl,23.57
2022-02-02T06:17:00,sdl,22.64
2022-02-02T06:18:00,sdl,25.30
2022-02-02T06:19:00,sdl,25.27
2022-02-02T06:20:00,sdl,25.25
2022-02-02T06:21:00,sdl,25.19
2022-02-02T06:22:00,sdl,25.17
2022-02-02T06:23:00,sdl,25.49
2022-02-02T06:24:00,sdl,25.02
2022-02-02T06:25:00,sdl,25.03
2022-02-02T06:26:00,sdl,25.07
2022-02-02T06:27:00,sdl,25.02
2022-02-02T06:28:00,sdl,25.13
2022-02-02T06:29:00,sdl,25.07
2022-02-02T06:30:00,sdl,25.25
2022-02-02T06:31:00,sdl,22.94
2022-02-02T06:32:00,sdl,23.51
2022-02-02T06:33:00,sdl,23.24
2022-02-02T06:34:00,sdl,23.30
2022-02-02T06:35:00,sdl,22.69
2022-02-02T06:36:00,sdl,22.69
2022-02-02T06:37:00,sdl,22.65
2022-02-02T06:38:00,sdl,23.40
2022-02-02T06:39:00,sdl,23.00
2022-02-02T06:40:00,sdl,22.93
2022-02-02T06:41:00,sdl,22.90
2022-02-02T06:42:00,sdl,23.05
2022-02-02T06:43:00,sdl,23.04
2022-02-02T06:44:00,sdl,22.60
2022-02-02T06:45:00,sdl,22.51
2022-02-02T06:46:00,sdl,22.48
2022-02-02T06:47:00,sdl,22.51
2022-02-02T06:48:00,sdl,22.43
2022-02-02T06:49:00,sdl,22.51
2022-02-02T06:50:00,sdl,22.34
2022-02-02T06:51:00,sdl,22.41
2022-02-02T06:52:00,sdl,22.37
2022-02-02T06:53:00,sdl,22.37
2022-02-02T06:54:00,sdl,22.54
2022-02-02T06:55:00,sdl,22.51
2022-02-02T06:56:00,sdl,24.70
2022-02-02T06:57:00,sdl,24.68
2022-02-02T06:58:00,sdl,24.81
2022-02-02T06:59:00,sdl,24.98
2022-02-02T07:00:00,sdl,25.00
2022-02-02T07:01:00,sdl,24.51
2022-02-02T07:02:00,sdl,24.57
2022-02-02T07:03:00,sdl,24.54
2022-02-02T07:04:00,sdl,24.44
2022-02-02T07:05:00,sdl,24.40
2022-02-02T07:06:00,sdl,24.43
2022-02-02T07:07:00,sdl,24.29
2022-02-02T07:08:00,sdl,24.31
2022-02-02T07:09:00,sdl,24.34
2022-02-02T07:10:00,sdl,24.32
2022-02-02T07:11:00,sdl,24.20
2022-02-02T07:12:00,sdl,24.27
2022-02-02T07:13:00,sdl,22.11
2022-02-02T07:14:00,sdl,22.67
2022-02-02T07:15:00,sdl,22.14
2022-02-02T07:16:00,sdl,22.62
2022-02-02T07:17:00,sdl,22.13
2022-02-02T07:18:00,sdl,22.43
2022-02-02T07:19:00,sdl,22.28
2022-02-02T07:20:00,sdl,22.26
2022-02-02T07:21:00,sdl,22.34
2022-02-02T07:22:00,sdl,22.80
2022-02-02T07:23:00,sdl,22.24
2022-02-02T07:24:00,sdl,22.61
2022-02-02T07:25:00,sdl,22.55
2022-02-02T07:26:00,sdl,22.54
2022-02-02T07:27:00,sdl,22.88
2022-02-02T07:28:00,sdl,24.63
2022-02-02T07:29:00,sdl,24.69
2022-02-02T07:30:00,sdl,24.74
2022-02-02T07:31:00,sdl,24.82
2022-02-02T07:32:00,sdl,24.72
2022-02-02T07:33:00,sdl,24.70
2022-02-02T07:34:00,sdl,24.69
2022-02-02T07:35:00,sdl,24.81
2022-02-02T07:36:00,sdl,24.63
2022-02-02T07:37:00,sdl,24.58
2022-02-02T07:38:00,sdl,24.60
2022-02-02T07:39:00,sdl,24.70
2022-02-02T07:40:00,sdl,22.47
2022-02-02T07:41:00,sdl,22.56
2022-02-02T07:42:00,sdl,22.44
2022-02-02T07:43:00,sdl,22.50
2022-02-02T07:44:00,sdl,22.63
2022-02-02T07:45:00,sdl,22.77
2022-02-02T07:46:00,sdl,22.67
2022-02-02T07:47:00,sdl,22.76
2022-02-02T07:48:00,sdl,23.00
2022-02-02T07:49:00,sdl,22.57
2022-02-02T07:50:00,sdl,22.30
2022-02-02T07:51:00,sdl,22.85
2022-02-02T07:52:00,sdl,22.35
2022-02-02T07:53:00,sdl,22.66
2022-02-02T07:54:00,sdl,22.73
2022-02-02T07:55:00,sdl,22.39
2022-02-02T07:56:00,sdl,22.52
2022-02-02T07:57:00,sdl,22.55
2022-02-02T07:58:00,sdl,22.52
2022-02-02T07:59:00,sdl,22.70
2022-02-02T08:00:00,sdl,22.57
2022-02-02T08:01:00,sdl,22.50
2022-02-02T08:02:00,sdl,24.72
2022-02-02T08:03:00,sdl,24.78
2022-02-02T08:04:00,sdl,24.75
2022-02-02T08:05:00,sdl,24.61
2022-02-02T08:06:00,sdl,24.67
2022-02-02T08:07:00,sdl,24.76
2022-02-02T08:08:00,sdl,24.72
2022-02-02T08:09:00,sdl,24.81
2022-02-02T08:10:00,sdl,24.77
2022-02-02T08:11:00,sdl,24.84
2022-02-02T08:12:00,sdl,24.83
2022-02-02T08:13:00,sdl,24.71
2022-02-02T08:14:00,sdl,25.50
2022-02-02T08:15:00,sdl,25.48
2022-02-02T08:16:00,sdl,25.51
2022-02-02T08:17:00,sdl,25.82
2022-02-02T08:18:00,sdl,26.51
2022-02-02T08:19:00,sdl,26.62
2022-02-02T08:20:00,sdl,24.58
2022-02-02T08:21:00,sdl,24.90
2022-02-02T08:22:00,sdl,24.65
2022-02-02T08:23:00,sdl,24.48
2022-02-02T08:24:00,sdl,38.51
2022-02-02T08:25:00,sdl,24.25
2022-02-02T08:26:00,sdl,24.71
2022-02-02T08:27:00,sdl,23.62
2022-02-02T08:28:00,sdl,23.47
2022-02-02T08:29:00,sdl,23.87
2022-02-02T08:30:00,sdl,23.84
2022-02-02T08:31:00,sdl,24.01
2022-02-02T08:32:00,sdl,24.40
2022-02-02T08:33:00,sdl,24.48
2022-02-02T08:34:00,sdl,24.42
2022-02-02T08:35:00,sdl,24.95
2022-02-02T08:36:00,sdl,24.66
2022-02-02T08:37:00,sdl,24.64
2022-02-02T08:38:00,sdl,24.64
2022-02-02T08:39:00,sdl,27.20
2022-02-02T08:40:00,sdl,27.16
2022-02-02T08:41:00,sdl,27.23
2022-02-02T08:42:00,sdl,27.24
2022-02-02T08:43:00,sdl,27.17
2022-02-02T08:44:00,sdl,27.26
2022-02-02T08:45:00,sdl,27.30
2022-02-02T08:46:00,sdl,27.12
2022-02-02T08:47:00,sdl,27.42
2022-02-02T08:48:00,sdl,25.14
2022-02-02T08:49:00,sdl,24.71
2022-02-02T08:50:00,sdl,24.69
2022-02-02T08:51:00,sdl,24.73
2022-02-02T08:52:00,sdl,24.88
2022-02-02T08:53:00,sdl,24.76
2022-02-02T08:54:00,sdl,24.80
2022-02-02T08:55:00,sdl,24.87
2022-02-02T08:56:00,sdl,25.27
2022-02-02T08:57:00,sdl,25.06
2022-02-02T08:58:00,sdl,25.48
2022-02-02T08:59:00,sdl,24.91
2022-02-02T09:00:00,sdl,24.78
2022-02-02T09:01:00,sdl,25.64
2022-02-02T09:02:00,sdl,25.94
2022-02-02T09:03:00,sdl,26.09
2022-02-02T09:04:00,sdl,25.95
2022-02-02T09:05:00,sdl,28.15
2022-02-02T09:06:00,sdl,27.82
2022-02-02T09:07:00,sdl,28.22
2022-02-02T09:08:00,sdl,27.93
2022-02-02T09:09:00,sdl,27.90
2022-02-02T09:10:00,sdl,29.05
2022-02-02T09:11:00,sdl,27.73
2022-02-02T09:12:00,sdl,27.63
2022-02-02T09:13:00,sdl,27.57
2022-02-02T09:14:00,sdl,27.54
2022-02-02T09:15:00,sdl,28.38
2022-02-02T09:16:00,sdl,27.69
2022-02-02T09:17:00,sdl,28.53
2022-02-02T09:18:00,sdl,27.55
2022-02-02T09:19:00,sdl,27.56
2022-02-02T09:20:00,sdl,27.71
2022-02-02T09:21:00,sdl,25.58
2022-02-02T09:22:00,sdl,22.24
2022-02-02T09:23:00,sdl,22.57
2022-02-02T09:24:00,sdl,22.63
2022-02-02T09:25:00,sdl,22.79
2022-02-02T09:26:00,sdl,23.19
2022-02-02T09:27:00,sdl,23.79
2022-02-02T09:28:00,sdl,25.26
2022-02-02T09:29:00,sdl,24.53
2022-02-02T09:30:00,sdl,24.88
2022-02-02T09:31:00,sdl,24.68
2022-02-02T09:32:00,sdl,24.84
2022-02-02T09:33:00,sdl,24.69
2022-02-02T09:34:00,sdl,24.75
2022-02-02T09:35:00,sdl,24.70
2022-02-02T09:36:00,sdl,24.75
2022-02-02T09:37:00,sdl,24.68
2022-02-02T09:38:00,sdl,26.87
2022-02-02T09:39:00,sdl,27.36
2022-02-02T09:40:00,sdl,26.79
2022-02-02T09:41:00,sdl,26.88
2022-02-02T09:42:00,sdl,26.76
2022-02-02T09:43:00,sdl,27.18
2022-02-02T09:44:00,sdl,27.10
2022-02-02T09:45:00,sdl,27.25
2022-02-02T09:46:00,sdl,27.17
2022-02-02T09:47:00,sdl,27.24
2022-02-02T09:48:00,sdl,25.02
2022-02-02T09:49:00,sdl,25.02
2022-02-02T09:50:00,sdl,25.04
2022-02-02T09:51:00,sdl,25.09
2022-02-02T09:52:00,sdl,25.05
2022-02-02T09:53:00,sdl,24.92
2022-02-02T09:54:00,sdl,24.93
2022-02-02T09:55:00,sdl,24.84
2022-02-02T09:56:00,sdl,24.82
2022-02-02T09:57:00,sdl,25.19
2022-02-02T09:58:00,sdl,25.18
2022-02-02T09:59:00,sdl,24.83
2022-02-02T10:00:00,sdl,24.94
2022-02-02T10:01:00,sdl,24.91
2022-02-02T10:02:00,sdl,24.87
2022-02-02T10:03:00,sdl,24.95
2022-02-02T10:04:00,sdl,26.76
2022-02-02T10:05:00,sdl,26.02
2022-02-02T10:06:00,sdl,25.30
2022-02-02T10:07:00,sdl,27.55
2022-02-02T10:08:00,sdl,27.18
2022-02-02T10:09:00,sdl,27.40
2022-02-02T10:10:00,sdl,27.25
2022-02-02T10:11:00,sdl,27.31
2022-02-02T10:12:00,sdl,27.31
2022-02-02T10:13:00,sdl,28.68
2022-02-02T10:14:00,sdl,27.54
2022-02-02T10:15:00,sdl,27.58
2022-02-02T10:16:00,sdl,28.11
2022-02-02T10:17:00,sdl,27.53
2022-02-02T10:18:00,sdl,27.65
2022-02-02T10:19:00,sdl,27.63
2022-02-02T10:20:00,sdl,27.66
2022-02-02T10:21:00,sdl,27.77
2022-02-02T10:22:00,sdl,27.73
2022-02-02T10:23:00,sdl,25.54
2022-02-02T10:24:00,sdl,25.44
2022-02-02T10:25:00,sdl,25.72
2022-02-02T10:26:00,sdl,26.18
2022-02-02T10:27:00,sdl,25.40
2022-02-02T10:28:00,sdl,25.22
2022-02-02T10:29:00,sdl,25.87
2022-02-02T10:30:00,sdl,25.77
2022-02-02T10:31:00,sdl,26.23
2022-02-02T10:32:00,sdl,26.06
2022-02-02T10:33:00,sdl,26.04
2022-02-02T10:34:00,sdl,25.05
2022-02-02T10:35:00,sdl,26.18
2022-02-02T10:36:00,sdl,24.92
2022-02-02T10:37:00,sdl,24.81
2022-02-02T10:38:00,sdl,24.74
2022-02-02T10:39:00,sdl,26.47
2022-02-02T10:40:00,sdl,26.73
2022-02-02T10:41:00,sdl,24.83
2022-02-02T10:42:00,sdl,24.77
2022-02-02T10:43:00,sdl,27.03
2022-02-02T10:44:00,sdl,27.08
2022-02-02T10:45:00,sdl,27.09
2022-02-02T10:46:00,sdl,27.40
2022-02-02T10:47:00,sdl,26.99
2022-02-02T10:48:00,sdl,26.94
2022-02-02T10:49:00,sdl,26.98
2022-02-02T10:50:00,sdl,26.89
2022-02-02T10:51:00,sdl,27.18
2022-02-02T10:52:00,sdl,25.12
2022-02-02T10:53:00,sdl,26.08
2022-02-02T10:54:00,sdl,26.49
2022-02-02T10:55:00,sdl,26.48
2022-02-02T10:56:00,sdl,26.39
2022-02-02T10:57:00,sdl,26.03
2022-02-02T10:58:00,sdl,26.03
2022-02-02T10:59:00,sdl,26.14
2022-02-02T11:00:00,sdl,26.06
2022-02-02T11:01:00,sdl,26.05
2022-02-02T11:02:00,sdl,26.02
2022-02-02T11:03:00,sdl,25.93
2022-02-02T11:04:00,sdl,26.06
2022-02-02T11:05:00,sdl,27.29
2022-02-02T11:06:00,sdl,27.09
2022-02-02T11:07:00,sdl,29.44
2022-02-02T11:08:00,sdl,29.43
2022-02-02T11:09:00,sdl,30.14
2022-02-02T11:10:00,sdl,29.91
2022-02-02T11:11:00,sdl,30.53
2022-02-02T11:12:00,sdl,30.30
2022-02-02T11:13:00,sdl,30.23
2022-02-02T11:14:00,sdl,30.50
2022-02-02T11:15:00,sdl,30.07
2022-02-02T11:16:00,sdl,30.01
2022-02-02T11:17:00,sdl,30.06
2022-02-02T11:18:00,sdl,29.99
2022-02-02T11:19:00,sdl,31.90
2022-02-02T11:20:00,sdl,31.86
2022-02-02T11:21:00,sdl,31.71
2022-02-02T11:22:00,sdl,32.37
2022-02-02T11:23:00,sdl,30.16
2022-02-02T11:24:00,sdl,29.22
2022-02-02T11:25:00,sdl,29.21
2022-02-02T11:26:00,sdl,27.86
2022-02-02T11:27:00,sdl,27.56
2022-02-02T11:28:00,sdl,27.69
2022-02-02T11:29:00,sdl,27.63
2022-02-02T11:30:00,sdl,27.63
2022-02-02T11:31:00,sdl,27.73
2022-02-02T11:32:00,sdl,41.42
2022-02-02T11:33:00,sdl,26.56
2022-02-02T11:34:00,sdl,26.20
2022-02-02T11:35:00,sdl,28.50
2022-02-02T11:36:00,sdl,28.57
2022-02-02T11:37:00,sdl,30.29
2022-02-02T11:38:00,sdl,28.22
2022-02-02T11:39:00,sdl,28.18
2022-02-02T11:40:00,sdl,28.71
2022-02-02T11:41:00,sdl,30.09
2022-02-02T11:42:00,sdl,27.69
2022-02-02T11:43:00,sdl,28.19
2022-02-02T11:44:00,sdl,29.33
2022-02-02T11:45:00,sdl,30.02
2022-02-02T11:46:00,sdl,30.13
2022-02-02T11:47:00,sdl,29.19
2022-02-02T11:48:00,sdl,26.46
2022-02-02T11:49:00,sdl,26.54
2022-02-02T11:50:00,sdl,26.59
2022-02-02T11:51:00,sdl,26.56
2022-02-02T11:52:00,sdl,26.60
2022-02-02T11:53:00,sdl,26.60
2022-02-02T11:54:00,sdl,26.58
2022-02-02T11:55:00,sdl,26.53
2022-02-02T11:56:00,sdl,27.10
2022-02-02T11:57:00,sdl,26.64
2022-02-02T11:58:00,sdl,26.79
2022-02-02T11:59:00,sdl,26.23
2022-02-02T12:00:00,sdl,26.10
2022-02-02T12:01:00,sdl,26.15
2022-02-02T12:02:00,sdl,25.71
2022-02-02T12:03:00,sdl,27.74
2022-02-02T12:04:00,sdl,27.99
2022-02-02T12:05:00,sdl,27.81
2022-02-02T12:06:00,sdl,27.73
2022-02-02T12:07:00,sdl,27.60
2022-02-02T12:08:00,sdl,27.79
2022-02-02T12:09:00,sdl,28.03
2022-02-02T12:10:00,sdl,28.46
2022-02-02T12:11:00,sdl,28.03
2022-02-02T12:12:00,sdl,28.44
2022-02-02T12:13:00,sdl,28.40
2022-02-02T12:14:00,sdl,28.39
2022-02-02T12:15:00,sdl,28.29
2022-02-02T12:16:00,sdl,27.85
2022-02-02T12:17:00,sdl,27.82
2022-02-02T12:18:00,sdl,27.67
2022-02-02T12:19:00,sdl,27.67
2022-02-02T12:20:00,sdl,27.67
2022-02-02T12:21:00,sdl,27.20
2022-02-02T12:22:00,sdl,29.49
2022-02-02T12:23:00,sdl,28.19
2022-02-02T12:24:00,sdl,27.81
2022-02-02T12:25:00,sdl,28.00
2022-02-02T12:26:00,sdl,28.05
2022-02-02T12:27:00,sdl,28.03
2022-02-02T12:28:00,sdl,27.92
2022-02-02T12:29:00,sdl,28.66
2022-02-02T12:30:00,sdl,27.96
2022-02-02T12:31:00,sdl,25.59
2022-02-02T12:32:00,sdl,25.78
2022-02-02T12:33:00,sdl,26.35
2022-02-02T12:34:00,sdl,26.62
2022-02-02T12:35:00,sdl,26.60
2022-02-02T12:36:00,sdl,26.94
2022-02-02T12:37:00,sdl,26.98
2022-02-02T12:38:00,sdl,25.97
2022-02-02T12:39:00,sdl,25.98
2022-02-02T12:40:00,sdl,25.63
2022-02-02T12:41:00,sdl,25.77
2022-02-02T12:42:00,sdl,25.91
2022-02-02T12:43:00,sdl,25.29
2022-02-02T12:44:00,sdl,25.17
2022-02-02T12:45:00,sdl,25.25
2022-02-02T12:46:00,sdl,25.16
2022-02-02T12:47:00,sdl,25.17
2022-02-02T12:48:00,sdl,25.13
2022-02-02T12:49:00,sdl,24.77
2022-02-02T12:50:00,sdl,25.27
2022-02-02T12:51:00,sdl,25.31
2022-02-02T12:52:00,sdl,25.08
2022-02-02T12:53:00,sdl,27.39
2022-02-02T12:54:00,sdl,27.39
2022-02-02T12:55:00,sdl,27.42
2022-02-02T12:56:00,sdl,27.36
2022-02-02T12:57:00,sdl,27.31
2022-02-02T12:58:00,sdl,27.31
2022-02-02T12:59:00,sdl,27.29
2022-02-02T13:00:00,sdl,27.38
2022-02-02T13:01:00,sdl,27.47
2022-02-02T13:02:00,sdl,27.44
2022-02-02T13:03:00,sdl,27.36
2022-02-02T13:04:00,sdl,27.77
2022-02-02T13:05:00,sdl,25.31
2022-02-02T13:06:00,sdl,24.89
2022-02-02T13:07:00,sdl,24.94
2022-02-02T13:08:00,sdl,24.95
2022-02-02T13:09:00,sdl,24.86
2022-02-02T13:10:00,sdl,25.24
2022-02-02T13:11:00,sdl,25.05
2022-02-02T13:12:00,sdl,25.57
2022-02-02T13:13:00,sdl,25.10
2022-02-02T13:14:00,sdl,25.11
2022-02-02T13:15:00,sdl,25.03
2022-02-02T13:16:00,sdl,25.45
2022-02-02T13:17:00,sdl,25.02
2022-02-02T13:18:00,sdl,27.26